Torna al catalogo

ARIANE 5 R/B

AttivoHEO
NORAD 33754·ROCKET BODY·🇫🇷 France

Lanciato Feb 12, 2009 da Guiana Space Centre

Loading…

Prossimi Passaggi (prossime 24 ore)

TLE

AggiornatoSource: Space-Track

Epoca: Sep 13, 2026, 23:30 UTC

1 33754U 09008F   26256.97944784  .00001921  00000-0  83993-3 0  9990
2 33754   2.4368 354.9897 7093301  17.0015 357.8239  2.50773335152582

Traccia ARIANE 5 R/B in tempo reale con AllMySat

Download on the App Store